Palm Springs, CA

10:42 PM PST on February 06, 2016 (GMT -0800)
Palm Springs International

Weather History for KPSP - January, 2012

Change the Weather History Date:

Thursday, January 5, 2012

  Actual Average Record
Temperature  
Mean Temperature 65 °F 56 °F  
Max Temperature 80 °F 68 °F 83 °F (1981)
Min Temperature 50 °F 45 °F 27 °F (1950)
Degree Days  
Heating Degree Days 0 9  
Month to date heating degree days 1 45  
Since 1 July heating degree days 428 431  
Cooling Degree Days 0 0  
Month to date cooling degree days 2 0  
Year to date cooling degree days 2 0  
Growing Degree Days 16 (Base 50)    
Moisture  
Dew Point 24 °F    
Average Humidity 24    
Maximum Humidity 38    
Minimum Humidity 10    
Precipitation  
Precipitation 0.00 in 0.05 in 1.38 in (1995)
Month to date precipitation 0.00 0.27  
Year to date precipitation 0.00 0.27  
Since 1 July precipitation 1.48  
Snow  
Snow 0.00 in - - ()
Month to date snowfall 0.0  
Year to date snowfall 0.0  
Snow Depth 0.00 in    
Sea Level Pressure  
Sea Level Pressure 30.12 in    
Wind  
Wind Speed 5 mph (NNW)    
Max Wind Speed 10 mph    
Max Gust Speed 12 mph    
Visibility 10 miles    
Events      
T = Trace of Precipitation, MM = Missing Value Source: NWS Daily Summary

Daily Weather History Graph

Daily Weather History Graph

Search for Another Location

Airport or City:

Trip Planner

Search our weather history database for the weather conditions in past years. The results will help you decide how hot, cold, wet, or windy it might be!

Date:

Astronomy

Jan. 05, 2012 Rise Set
Actual Time 6:51 AM PST 4:51 PM PST
Civil Twilight 6:24 AM PST 5:18 PM PST
Nautical Twilight 5:53 AM PST 5:49 PM PST
Astronomical Twilight 5:22 AM PST 6:20 PM PST
Moon 1:58 PM PST (1/5) 3:41 AM PST (1/5)
Length of Visible Light 10h 54m
Length of Day
9h 59m
Waxing Gibbous, 88% of the Moon is Illuminated
Jan 5
Waxing Gibbous
Jan 8
Full
Jan 16
Last Quarter
Jan 22
New
Jan 30
First Quarter

Hourly Weather History & Observations

Time (PST) Temp. Dew Point Humidity Pressure Visibility Wind Dir Wind Speed Gust Speed Precip Events Conditions
12:53 AM 55.9 °F 24.1 °F 29% 30.22 in 10.0 mi NNW 8.1 mph - N/A   Clear
1:53 AM 55.0 °F 25.0 °F 31% 30.22 in 10.0 mi NW 6.9 mph - N/A   Clear
2:53 AM 54.0 °F 26.1 °F 34% 30.22 in 10.0 mi NW 3.5 mph - N/A   Clear
3:53 AM 54.0 °F 25.0 °F 33% 30.20 in 10.0 mi NNW 3.5 mph - N/A   Clear
4:53 AM 55.0 °F 25.0 °F 31% 30.19 in 10.0 mi NNW 9.2 mph - N/A   Clear
5:53 AM 55.0 °F 24.1 °F 30% 30.19 in 10.0 mi NNW 6.9 mph - N/A   Clear
6:53 AM 52.0 °F 26.1 °F 37% 30.20 in 10.0 mi NNW 9.2 mph - N/A   Mostly Cloudy
7:53 AM 55.9 °F 25.0 °F 30% 30.21 in 10.0 mi NNW 4.6 mph - N/A   Mostly Cloudy
8:53 AM 64.0 °F 28.0 °F 26% 30.21 in 10.0 mi NNW 3.5 mph - N/A   Clear
9:53 AM 66.9 °F 27.0 °F 22% 30.22 in 10.0 mi Calm Calm - N/A   Scattered Clouds
10:53 AM 73.9 °F 23.0 °F 15% 30.18 in 10.0 mi Calm Calm - N/A   Scattered Clouds
11:53 AM 77.0 °F 21.9 °F 13% 30.13 in 10.0 mi Calm Calm - N/A   Clear
12:53 PM 79.0 °F 18.0 °F 10% 30.09 in 10.0 mi Calm Calm - N/A   Clear
1:53 PM 79.0 °F 18.0 °F 10% 30.06 in 10.0 mi SSE 3.5 mph - N/A   Clear
2:53 PM 80.1 °F 19.0 °F 10% 30.04 in 10.0 mi SSE 3.5 mph - N/A   Clear
3:53 PM 78.8 °F 19.4 °F 11% 30.03 in 10.0 mi ESE 4.6 mph - N/A   Clear
4:53 PM 72.0 °F 25.0 °F 17% 30.03 in 10.0 mi SE 3.5 mph - N/A   Clear
5:53 PM 66.0 °F 30.0 °F 26% 30.04 in 10.0 mi West 4.6 mph - N/A   Clear
6:53 PM 62.1 °F 25.0 °F 24% 30.04 in 10.0 mi NNW 6.9 mph - N/A   Clear
7:53 PM 61.0 °F 19.0 °F 20% 30.04 in 10.0 mi NNW 8.1 mph - N/A   Clear
8:53 PM 57.9 °F 21.0 °F 24% 30.05 in 10.0 mi NNW 6.9 mph - N/A   Clear
9:53 PM 57.9 °F 21.9 °F 25% 30.04 in 10.0 mi NNW 4.6 mph - N/A   Clear
10:53 PM 57.0 °F 21.0 °F 25% 30.02 in 10.0 mi NW 6.9 mph - N/A   Clear
11:53 PM 53.6 °F 30.2 °F 41% 30.00 in 10.0 mi Calm Calm - N/A   Clear